SCP
0 0 0 0 0 0 0 0 0 0 0 0 0 0 0 0 0 1 1 0 0 0 0 0 0 0 0 0 0 0 0 0 0 0 0 0 0 0
0 0 0 0 0 0 0 0 0 0 0 0 0 0 0 0 0 0 1 0 0 0 0 0 0 0 0 0 0 0 0 0 0 0 0 0 0 0
0 0 0 0 0 0 0 0 0 0 0 0 0 0 0 0 0 0 1 0 0 0 0 0 0 0 0 0 0 0 0 0 0 0 0 0 0 0
0 0 0 0 0 0 0 0 0 0 0 0 0 0 0 0 0 0 0 1 0 0 0 0 0 0 0 0 0 0 0 0 0 0 0 0 0 0
0 0 0 0 0 0 0 0 0 0 0 0 0 0 0 0 0 0 0 0 0 0 0 0 0 0 0 0 0 0 0 0 0 0 0 0 0 0
0 0 0 0 0 0 0 0 0 0 0 0 0 0 0 0 0 0 0 0 0 0 0 0 0 0 0 0 0 0 0 0 0 0 0 0 0 0
0 0 0 0 0 0 0 0 0 0 0 0 0 0 0 0 0 0 0 0 0 0 0 0 0 0 0 0 0 0 0 0 0 0 0 0 0 0
0 0 0 0 0 0 0 0 0 0 0 0 0 0 0 0 0 0 0 0 0 1 1 1 1 1 0 0 0 0 0 0 0 0 0 0 0 0
0 0 0 0 0 0 0 0 0 0 0 0 0 0 0 0 0 0 0 0 0 1 1 1 1 1 1 0 0 0 0 0 0 0 0 0 0 0
0 0 0 0 0 0 0 0 0 0 0 0 0 0 0 0 0 0 0 0 0 1 1 1 1 1 0 0 0 0 0 0 0 0 0 0 0 0
0 0 0 0 0 0 0 0 0 0 0 0 0 0 0 0 0 0 0 0 0 0 0 0 0 0 0 0 0 0 0 0 0 0 0 0 0 0
0 0 0 0 0 0 0 0 0 0 0 0 0 0 0 0 0 0 0 0 0 0 0 0 0 0 0 0 0 0 0 0 0 0 0 0 0 0
0 0 0 0 0 0 0 0 0 0 0 0 0 0 0 0 0 0 0 0 0 0 0 0 0 0 0 0 0 0 0 0 0 0 0 0 0 0
0 0 0 0 0 0 0 0 0 0 0 0 0 0 0 0 0 0 0 0 0 0 0 0 0 0 0 0 0 0 0 0 0 0 0 0 0 0
0 0 0 0 0 0 0 0 0 0 0 0 0 0 0 0 0 0 0 0 0 0 0 0 0 0 0 0 0 0 0 0 0 0 0 0 0 0
0 0 0 0 0 0 0 0 0 0 0 0 0 0 0 0 0 0 0 0 0 0 0 0 0 0 0 0 0 0 0 0 0 0 0 0 0 0
0 0 0 0 0 0 0 0 0 0 0 0 0 0 0 0 0 0 0 0 0 0 0 0 0 0 0 0 0 0 0 0 0 0 0 0 0 0
0 0 0 0 0 0 0 0 0 0 0 0 0 0 0 0 0 0 0 0 0 0 0 0 0 0 0 0 0 0 0 0 0 0 0 0 0 0
0 0 0 0 0 0 0 0 0 0 0 0 0 0 0 0 0 0 0 0 0 0 0 0 0 0 0 0 0 0 0 0 0 0 0 0 0 0
0 0 0 0 0 0 0 0 0 0 0 0 0 0 0 0 0 0 0 0 0 0 0 0 0 0 0 0 0 0 0 0 0 0 0 0 0 0
0 0 0 0 0 0 0 0 0 0 0 0 0 0 0 0 0 0 0 0 0 0 0 0 0 0 0 0 0 0 0 0 0 0 0 0 0 0
0 0 0 0 0 0 0 0 0 0 0 0 0 0 0 0 0 0 0 0 0 0 0 0 0 0 0 0 0 0 0 0 0 0 0 0 0 0
0 0 0 0 0 0 0 0 0 0 0 0 0 0 0 0 0 0 0 0 0 0 0 0 0 0 0 0 0 0 0 0 0 0 0 0 0 0
Wind_Speed
10 10 9 8 7 7 7 7 7 7 6 5 4 3 3 4 4 8 9 12 16 16 17 17 18 18 19 19 19 18 18 18 18 17 17 18 18 19
9 10 9 9 7 7 7 7 8 8 7 4 3 3 3 4 4 6 7 9 13 15 16 16 16 17 17 18 18 18 18 17 17 17 17 16 16 17
10 11 11 11 9 8 7 7 7 7 8 6 4 3 4 5 4 5 6 7 8 14 15 16 16 16 17 17 17 17 17 17 17 16 16 16 15 15
12 11 11 10 11 10 8 8 8 7 7 8 5 4 5 5 5 6 6 7 7 11 14 14 15 15 16 16 16 16 16 16 15 15 15 15 15 14
12 12 12 11 11 10 10 9 8 8 7 7 7 5 4 4 4 6 6 4 6 7 11 12 13 14 15 15 15 15 14 14 15 14 14 14 13 13
12 12 12 12 12 11 10 11 10 9 8 8 7 6 5 4 4 4 5 5 5 6 6 7 10 12 13 14 14 15 14 14 13 13 13 13 12 12
12 12 13 12 10 9 9 10 10 9 8 8 8 6 6 5 5 4 4 4 5 5 5 7 8 8 10 12 13 14 14 13 13 13 12 12 11 11
12 12 12 12 12 13 13 13 12 11 10 9 8 8 7 6 5 5 4 4 5 6 6 6 7 7 8 9 12 14 14 13 13 13 12 12 11 11
12 11 11 10 10 12 13 16 16 16 14 12 11 9 7 7 6 7 6 6 5 4 6 6 6 6 5 6 13 13 13 13 13 13 12 12 11 10
12 12 12 12 11 10 11 12 13 14 15 14 12 10 9 6 7 7 6 6 5 4 5 5 5 5 5 6 11 11 11 11 12 12 12 11 11 10
11 11 12 12 9 7 11 13 13 12 11 12 11 9 6 5 5 6 6 6 5 5 6 4 4 4 4 5 7 10 10 11 11 11 12 11 11 10
8 9 10 11 8 7 11 12 13 12 11 11 12 11 11 11 11 10 9 7 6 5 6 6 6 6 5 4 5 7 8 9 10 10 11 12 12 9
8 7 6 8 10 10 11 12 11 10 10 11 10 11 11 10 11 12 10 8 7 5 6 6 6 7 6 5 4 5 7 7 8 8 10 12 11 7
9 7 4 3 7 9 10 10 9 9 9 9 9 10 10 10 9 10 11 10 8 7 6 6 5 6 7 7 6 6 6 7 7 7 7 10 8 4
8 7 7 6 8 10 13 12 11 10 10 9 9 10 9 9 8 8 9 9 8 8 8 8 6 6 6 6 7 8 6 6 7 7 7 8 8 8
8 7 10 11 10 9 8 11 11 9 9 8 8 7 7 7 8 8 8 8 7 6 7 9 8 7 6 6 6 8 8 8 8 8 7 7 7 7
7 7 6 5 6 7 7 7 8 8 9 8 7 7 7 7 7 7 7 7 8 8 7 7 6 5 5 6 7 8 8 8 8 9 8 7 7 7
7 7 6 5 5 5 5 6 7 7 8 8 8 7 7 7 7 7 7 8 8 8 8 8 7 6 4 2 3 7 8 8 8 9 8 8 8 7
7 6 6 5 5 5 5 6 7 7 7 8 8 8 8 8 8 8 8 8 8 8 8 7 8 9 9 8 6 5 7 8 8 8 8 7 7 8
7 6 5 5 4 5 5 6 6 6 7 7 8 8 8 8 8 9 9 9 8 8 8 8 9 9 9 7 6 6 8 9 9 9 8 5 4 6
5 5 5 4 4 4 4 5 5 6 7 7 7 8 7 8 8 9 8 9 9 8 9 8 8 8 5 5 5 5 6 5 4 7 9 8 7 7
5 5 4 4 4 3 3 4 4 5 6 7 7 7 7 8 9 9 8 9 9 9 9 7 9 9 7 8 8 8 7 7 5 7 6 3 5 8
5 5 4 4 3 3 3 4 4 4 5 6 6 7 7 8 8 8 9 8 8 9 9 8 8 8 8 8 8 8 10 10 8 7 4 5 5 6
Wind_Direction
259 252 249 256 254 254 256 258 264 264 255 244 239 234 242 237 215 218 215 195 198 200 201 202 202 200 200 201 203 205 206 206 207 209 211 212 213 217
261 264 261 256 252 252 252 254 254 262 265 253 244 248 259 255 220 226 221 191 198 200 201 201 202 201 199 200 202 203 204 204 204 205 207 209 211 214
261 256 252 257 256 251 247 247 249 250 258 261 252 246 247 263 250 238 225 216 203 197 199 198 199 199 198 198 199 200 201 201 202 203 205 207 208 210
264 262 257 252 246 250 249 247 247 248 253 258 256 248 240 245 243 238 232 221 217 188 192 194 194 194 194 194 196 197 198 198 199 200 201 204 206 208
266 262 259 255 252 248 246 245 244 241 240 251 252 249 247 245 243 235 229 227 222 183 183 189 192 191 189 190 191 192 191 193 194 196 199 201 203 205
267 263 260 256 252 250 247 244 243 244 240 242 246 242 237 231 235 235 221 207 208 193 182 178 178 185 187 186 187 187 187 189 190 192 194 195 197 199
269 263 258 258 265 263 263 254 245 238 237 234 235 235 231 219 224 230 229 213 206 195 179 178 175 184 184 185 187 184 183 185 186 187 188 189 188 190
271 267 262 248 238 234 248 260 265 256 247 242 236 232 230 228 227 235 226 215 213 193 190 188 183 185 184 186 175 176 179 180 181 182 181 181 182 184
270 268 264 259 242 240 230 230 240 246 250 255 252 246 235 226 228 233 227 222 230 194 187 188 177 180 178 150 149 164 172 174 175 176 175 175 176 178
264 262 261 264 258 254 250 242 238 232 228 231 242 247 248 239 227 237 246 234 232 211 194 192 178 173 162 146 146 157 164 168 170 171 170 169 170 171
265 260 258 259 250 237 252 252 249 243 230 227 235 243 248 235 228 231 226 226 219 203 194 191 170 154 156 156 148 155 160 165 169 169 166 165 164 166
270 263 247 248 259 232 244 248 247 245 241 217 215 220 225 217 208 224 227 223 223 207 191 187 174 163 161 159 160 163 161 161 165 168 167 166 171 185
281 273 263 212 228 231 241 250 253 261 250 237 226 219 218 218 213 213 220 222 220 219 186 186 186 180 167 152 161 170 169 164 166 167 170 172 183 208
279 277 280 214 225 231 233 243 250 255 247 238 229 222 217 215 214 214 213 218 222 223 195 189 198 190 173 163 158 163 171 172 170 168 167 166 177 182
278 288 284 261 245 236 231 232 233 234 235 232 231 226 220 212 207 207 206 207 214 215 200 197 204 198 194 183 166 164 164 172 175 169 166 171 176 177
263 262 241 238 240 251 233 215 223 227 227 228 230 227 220 208 205 202 200 196 197 199 201 195 199 201 201 191 175 172 171 170 174 173 169 172 178 186
308 284 271 252 236 233 231 224 221 216 218 221 221 220 217 213 207 203 202 198 202 197 190 188 189 196 210 193 182 180 174 170 168 166 168 174 182 184
280 268 267 262 252 242 237 230 224 220 218 216 214 213 214 213 210 202 201 202 204 201 194 183 174 171 181 203 205 186 178 172 166 169 175 177 180 182
255 257 256 255 252 247 239 234 229 222 216 216 212 209 209 209 208 206 203 203 203 201 195 186 183 184 188 190 184 206 186 170 166 172 183 185 181 176
255 266 266 261 254 246 242 242 233 219 214 216 213 208 208 208 205 206 206 204 201 198 194 191 195 198 200 190 173 174 186 175 173 175 177 171 139 115
284 282 275 270 263 250 242 239 233 222 215 211 212 208 207 211 210 207 203 196 203 200 199 197 194 188 186 167 162 162 163 163 169 176 170 165 160 165
297 293 292 287 275 259 246 239 230 223 214 211 207 206 208 211 209 207 205 197 200 203 202 192 176 179 188 189 181 168 159 149 114 92 92 111 173 182
308 304 296 283 267 241 235 232 228 225 220 217 208 203 207 211 212 206 204 203 199 199 195 186 181 185 191 190 180 169 164 163 161 157 138 58 62 85